This is the latest recevied weather packets stored in our database for station/object K1RFS. If no packets are shown the sender has not sent any weather packets the latest 10 day(s).
| Time | Temp. | Humidity | Pressure | Rain* | Wind** | Luminosity | Snow |
|---|---|---|---|---|---|---|---|
| 1787464214 | 20° C | 66% | 1008.5 hPa | 0 mm | - | 0 W/m² | - |
| 1787463910 | 20° C | 67% | 1008.4 hPa | 0 mm | - | 0 W/m² | - |
| 1787463610 | 20° C | 68% | 1008.4 hPa | 0 mm | - | 0 W/m² | - |
| 1787463306 | 20° C | 67% | 1008.5 hPa | 0 mm | - | 0 W/m² | - |
| 1787463002 | 20° C | 67% | 1008.5 hPa | 0 mm | - | 0 W/m² | - |
| 1787462699 | 20° C | 69% | 1008.5 hPa | 0 mm | - | 0 W/m² | - |
| 1787462394 | 20.56° C | 68% | 1008.4 hPa | 0 mm | - | 0 W/m² | - |
| 1787462095 | 20.56° C | 67% | 1008.5 hPa | 0 mm | - | 0 W/m² | - |
| 1787461790 | 21.11° C | 66% | 1008.1 hPa | 0 mm | - | 0 W/m² | - |
| 1787461485 | 21.67° C | 65% | 1008 hPa | 0 mm | - | 0 W/m² | - |
| 1787461180 | 21.67° C | 68% | 1007.6 hPa | 0 mm | - | 0 W/m² | - |
| 1787460876 | 21.67° C | 69% | 1007.4 hPa | 0 mm | - | 0 W/m² | - |
| 1787460572 | 21.67° C | 70% | 1007.4 hPa | 0 mm | - | 0 W/m² | - |
| 1787460268 | 22.22° C | 70% | 1007.1 hPa | 0 mm | - | 0 W/m² | - |
| 1787459965 | 21.67° C | 68% | 1006.9 hPa | 0 mm | - | 0 W/m² | - |
| 1787459662 | 22.22° C | 69% | 1006.6 hPa | 0 mm | - | 0 W/m² | - |
| 1787459360 | 22.22° C | 66% | 1006.3 hPa | 0 mm | - | 0 W/m² | - |
| 1787459056 | 22.22° C | 65% | 1006.4 hPa | 0 mm | - | 0 W/m² | - |
| 1787458755 | 22.22° C | 66% | 1006.5 hPa | 0 mm | - | 0 W/m² | - |
| 1787458454 | 22.22° C | 67% | 1006.6 hPa | 0 mm | - | 0 W/m² | - |
| 1787458150 | 22.22° C | 66% | 1006.9 hPa | 0 mm | - | 0 W/m² | - |
| 1787457846 | 22.22° C | 65% | 1006.6 hPa | 0 mm | - | 0 W/m² | - |
| 1787457541 | 22.22° C | 64% | 1006.5 hPa | 0 mm | - | 0 W/m² | - |
| 1787457237 | 21.67° C | 67% | 1006.3 hPa | 0 mm | - | 0 W/m² | - |
| 1787456932 | 21.67° C | 68% | 1006.2 hPa | 0 mm | - | 0 W/m² | - |
* Rain latest hour (hover to see other rain measurements)
** Current wind speed in m/s (hover to see current wind gust speed)